EW4271 Weather Reports


time (UTC)temp
C
wind
direction
speed
KPH
gust
KPH
rain 1hr
cm
rain 24hr
cm
rain mn
cm
humidity
%
barometer
mb
20260901022124 16 169 0.0 0.0 0.03 0.79 0.79 91 1027.4
20260901021601 16 169 0.0 0.0 0.03 0.79 0.79 91 1027.3
20260901021115 16 169 0.0 0.0 0.03 0.79 0.79 91 1027.4
20260901020629 16 169 0.0 0.0 0.03 0.79 0.79 90 1027.4
20260901020123 16 169 0.0 0.0 0.03 0.79 0.79 90 1027.4
20260901015616 16 169 0.0 0.0 0.03 0.79 0.79 90 1027.5
20260901015109 16 169 0.0 0.0 0.03 0.79 0.79 90 1027.6
20260901014604 16 169 0.0 0.0 0.03 0.79 0.79 89 1027.7
20260901014117 16 169 0.0 0.0 0.03 0.79 0.79 89 1027.6
20260901013611 16 169 0.0 0.0 0.03 0.79 0.79 89 1027.6
20260901013104 16 169 0.0 0.0 0.03 0.79 0.79 88 1027.7
20260901012602 16 169 0.0 0.0 0.03 0.79 0.79 88 1027.7
20260901012117 16 169 0.0 0.0 0.00 0.76 0.76 87 1027.5
20260901011610 16 169 0.0 0.0 0.00 0.76 0.76 86 1027.4
20260901011103 17 169 0.0 0.0 0.00 0.76 0.76 86 1027.3
20260901010618 17 169 0.0 1.6 0.00 0.76 0.76 87 1027.2
20260901010112 17 170 0.0 1.6 0.00 0.76 0.76 90 1027.1
20260901005606 17 162 0.0 1.6 0.00 0.76 0.76 91 1027.0
20260901005103 17 162 0.0 1.6 0.00 0.76 0.76 91 1026.9
20260901004617 17 162 0.0 0.0 0.00 0.76 0.76 91 1026.8
20260901004131 17 162 0.0 0.0 0.00 0.76 0.76 91 1026.8
20260901003603 17 162 0.0 0.0 0.03 0.76 0.76 91 1026.8
20260901003117 17 162 0.0 0.0 0.03 0.76 0.76 90 1026.8
20260901002610 17 162 0.0 0.0 0.05 0.76 0.76 90 1026.7
20260901002104 17 231 0.0 1.6 0.46 0.76 0.76 90 1026.6
20260901001618 17 232 0.0 3.2 0.76 0.76 0.76 90 1026.6
20260901001110 17 231 1.6 3.2 0.76 0.76 0.76 91 1026.6
20260901000609 17 231 0.0 0.0 0.76 0.76 0.76 89 1026.5
20260831235617 17 231 0.0 1.6 0.76 0.76 0.76 89 1026.3
20260831235111 17 213 0.0 0.0 0.76 0.76 0.76 86 1026.0
20260831234604 17 213 0.0 0.0 0.76 0.76 0.76 85 1026.0
20260831234118 17 213 0.0 1.6 0.76 0.76 0.76 82 1026.0
20260831233633 17 213 0.0 1.6 0.74 0.74 0.74 80 1026.0
20260831233106 18 213 0.0 4.8 0.74 0.74 0.74 71 1025.9
20260831232625 20 212 3.2 4.8 0.71 0.71 0.71 67 1026.2
20260831232138 22 209 0.0 9.7 0.30 0.30 0.30 66 1025.5
20260831231610 22 38 4.8 12.9 0.00 0.00 0.00 54 1025.0
20260831231105 22 30 4.8 12.9 0.00 0.00 0.00 52 1024.7
20260831230618 23 34 6.4 11.3 0.00 0.00 0.00 51 1024.8
20260831230110 23 57 4.8 8.0 0.00 0.00 0.00 49 1024.9
20260831225604 23 198 0.0 17.7 0.00 0.00 0.00 52 1025.1
20260831225118 23 116 3.2 14.5 0.00 0.00 0.00 47 1025.0
20260831224612 24 25 4.8 24.1 0.00 0.00 0.00 44 1024.9
20260831224125 25 5 6.4 24.1 0.00 0.00 0.00 43 1024.8
20260831223602 25 91 3.2 11.3 0.00 0.00 0.00 43 1024.8
20260831223115 25 130 3.2 11.3 0.00 0.00 0.00 41 1025.0
20260831222609 26 141 3.2 11.3 0.00 0.00 0.00 40 1025.0
20260831222103 26 153 4.8 9.7 0.00 0.00 0.00 40 1025.0
20260831221617 26 86 1.6 8.0 0.00 0.00 0.00 38 1024.9
20260831221111 27 69 3.2 6.4 0.00 0.00 0.00 39 1025.0
20260831220624 27 140 3.2 11.3 0.00 0.00 0.00 35 1025.0
20260831220118 27 211 3.2 12.9 0.00 0.00 0.00 34 1025.0
20260831215633 28 103 3.2 11.3 0.00 0.00 0.00 30 1025.0
20260831215109 28 333 3.2 11.3 0.00 0.00 0.00 33 1025.0
20260831214603 28 174 1.6 6.4 0.00 0.00 0.00 32 1024.9
20260831214117 28 160 3.2 6.4 0.00 0.00 0.00 32 1025.1
20260831213611 28 360 1.6 12.9 0.00 0.00 0.00 31 1025.3
20260831213125 28 155 4.8 12.9 0.00 0.00 0.00 31 1025.3
20260831212638 28 355 3.2 11.3 0.00 0.00 0.00 32 1025.3
20260831212112 28 127 3.2 9.7 0.00 0.00 0.00 31 1025.4
20260831211604 28 221 3.2 8.0 0.00 0.00 0.00 32 1025.5
20260831211118 27 27 3.2 9.7 0.00 0.00 0.00 34 1025.5
20260831210612 27 102 3.2 9.7 0.00 0.00 0.00 34 1025.5
20260831210111 27 60 4.8 8.0 0.00 0.00 0.00 35 1025.6
20260831205603 27 251 4.8 12.9 0.00 0.00 0.00 33 1025.7
20260831205118 27 304 4.8 12.9 0.00 0.00 0.00 32 1025.8
20260831204611 27 126 3.2 8.0 0.00 0.00 0.00 36 1025.8
20260831204104 27 128 3.2 8.0 0.00 0.00 0.00 38 1025.7
20260831203618 26 172 3.2 8.0 0.00 0.00 0.00 40 1025.9
20260831203111 26 296 3.2 8.0 0.00 0.00 0.00 40 1025.9
20260831202605 26 315 0.0 0.0 0.00 0.00 0.00 38 1026.0
20260831202120 26 281 0.0 3.2 0.00 0.00 0.00 37 1026.0
20260831201617 26 252 0.0 9.7 0.00 0.00 0.00 38 1026.1
20260831201111 26 232 3.2 9.7 0.00 0.00 0.00 38 1026.1
20260831200605 26 265 1.6 9.7 0.00 0.00 0.00 39 1026.1
20260831200120 26 302 4.8 8.0 0.00 0.00 0.00 39 1026.1
20260831195614 26 318 3.2 6.4 0.00 0.00 0.00 39 1026.2
20260831195107 25 263 1.6 4.8 0.00 0.00 0.00 37 1026.4
20260831194601 25 192 1.6 6.4 0.00 0.00 0.00 39 1026.5
20260831194115 25 315 3.2 6.4 0.00 0.00 0.00 39 1026.7
20260831193612 25 311 3.2 6.4 0.00 0.00 0.00 39 1026.7
20260831193126 25 85 1.6 6.4 0.00 0.00 0.00 40 1026.7
20260831192620 25 299 3.2 6.4 0.00 0.00 0.00 40 1026.7
20260831192114 25 163 4.8 6.4 0.00 0.00 0.00 36 1026.8
20260831191608 25 323 3.2 6.4 0.00 0.00 0.00 35 1026.9
20260831191103 26 39 1.6 6.4 0.00 0.00 0.00 36 1026.8
20260831190619 26 40 0.0 6.4 0.00 0.00 0.00 34 1026.8
20260831190113 26 217 1.6 6.4 0.00 0.00 0.00 35 1026.8
20260831185611 26 56 3.2 8.0 0.00 0.00 0.00 37 1027.0
20260831185103 25 168 4.8 8.0 0.00 0.00 0.00 38 1027.1
20260831184637 25 144 3.2 11.3 0.00 0.00 0.00 38 1027.3
20260831184110 25 30 3.2 11.3 0.00 0.00 0.00 40 1027.4
20260831183603 25 39 0.0 6.4 0.00 0.00 0.00 40 1027.4
20260831183117 25 124 3.2 8.0 0.00 0.00 0.00 37 1027.4
20260831182610 25 55 4.8 8.0 0.00 0.00 0.00 37 1027.5
20260831182104 25 42 3.2 11.3 0.00 0.00 0.00 38 1027.6
20260831181617 25 221 1.6 11.3 0.00 0.00 0.00 38 1027.7
20260831181115 25 151 3.2 8.0 0.00 0.00 0.00 41 1027.7
20260831180630 25 162 3.2 6.4 0.00 0.00 0.00 38 1027.8
20260831175614 25 291 3.2 8.0 0.00 0.00 0.00 37 1027.9
20260831175108 25 177 6.4 11.3 0.00 0.00 0.00 38 1027.9
20260831174602 24 157 4.8 11.3 0.00 0.00 0.00 39 1027.8
20260831174117 24 153 4.8 9.7 0.00 0.00 0.00 42 1027.8
20260831173611 24 9 6.4 12.9 0.00 0.00 0.00 40 1027.8
20260831173105 23 166 6.4 12.9 0.00 0.00 0.00 42 1027.9
20260831172602 23 144 3.2 14.5 0.00 0.00 0.00 44 1027.9
20260831172117 23 26 6.4 14.5 0.00 0.00 0.00 44 1028.0
20260831171611 22 113 1.6 8.0 0.00 0.00 0.00 48 1028.1
20260831171105 22 148 4.8 11.3 0.00 0.00 0.00 48 1028.1
20260831170619 22 155 4.8 11.3 0.00 0.00 0.00 47 1028.1
20260831170113 22 135 3.2 11.3 0.00 0.00 0.00 48 1028.1
20260831165607 22 140 3.2 6.4 0.00 0.00 0.00 48 1028.2
20260831165105 22 114 3.2 8.0 0.00 0.00 0.00 47 1028.2
20260831164618 22 155 3.2 11.3 0.00 0.00 0.00 49 1028.2
20260831164112 22 157 1.6 12.9 0.00 0.00 0.00 48 1028.2
20260831163626 22 128 3.2 12.9 0.00 0.00 0.00 50 1028.1
20260831163120 21 148 3.2 6.4 0.00 0.00 0.00 51 1028.2
20260831162613 21 46 3.2 12.9 0.00 0.00 0.00 51 1028.2
20260831162107 21 111 4.8 12.9 0.00 0.00 0.00 51 1028.3
20260831161601 21 136 3.2 11.3 0.00 0.00 0.00 54 1028.3
20260831161115 21 105 1.6 11.3 0.00 0.00 0.00 52 1028.3
20260831160613 21 134 1.6 11.3 0.00 0.00 0.00 53 1028.3
20260831160107 21 82 3.2 12.9 0.00 0.00 0.00 53 1028.3
20260831155601 20 167 4.8 12.9 0.00 0.00 0.00 56 1028.4
20260831155115 20 135 3.2 11.3 0.00 0.00 0.00 56 1028.3
20260831154609 20 157 3.2 14.5 0.00 0.00 0.00 58 1028.5
20260831154103 20 148 3.2 11.3 0.00 0.00 0.00 59 1028.4
20260831153618 20 130 4.8 12.9 0.00 0.00 0.00 59 1028.3
20260831153112 20 136 6.4 12.9 0.00 0.00 0.00 59 1028.2
20260831152610 20 97 6.4 14.5 0.00 0.00 0.00 58 1028.3
20260831152104 20 190 3.2 14.5 0.00 0.00 0.00 60 1028.2
20260831151617 20 148 3.2 11.3 0.00 0.00 0.00 60 1028.2
20260831151111 19 149 3.2 4.8 0.00 0.00 0.00 60 1028.2
20260831150626 19 130 3.2 8.0 0.00 0.00 0.00 60 1028.2
20260831150118 19 86 3.2 8.0 0.00 0.00 0.00 61 1028.2
20260831145613 18 140 1.6 6.4 0.00 0.00 0.00 64 1028.3
20260831145106 18 143 3.2 6.4 0.00 0.00 0.00 63 1028.3
20260831144618 18 142 1.6 6.4 0.00 0.00 0.00 64 1028.3
20260831144132 18 142 4.8 6.4 0.00 0.00 0.00 64 1028.5
20260831143610 18 178 3.2 8.0 0.00 0.00 0.00 65 1028.5
20260831143123 17 136 1.6 6.4 0.00 0.00 0.00 66 1028.6
20260831142618 17 131 1.6 6.4 0.00 0.00 0.00 65 1028.7
20260831142112 17 134 1.6 4.8 0.00 0.00 0.00 64 1028.6
20260831141606 18 50 1.6 4.8 0.00 0.00 0.00 61 1028.5
20260831141100 18 113 0.0 4.8 0.00 0.00 0.00 61 1028.6
20260831140613 18 113 1.6 4.8 0.00 0.00 0.00 61 1028.5
20260831140108 17 38 0.0 4.8 0.00 0.00 0.00 62 1028.6
20260831135604 17 175 0.0 4.8 0.00 0.00 0.00 61 1028.5
20260831135119 17 178 1.6 8.0 0.00 0.00 0.00 61 1028.5
20260831134613 17 125 3.2 8.0 0.00 0.00 0.00 60 1028.4
20260831134106 17 143 3.2 6.4 0.00 0.00 0.00 60 1028.4
20260831133640 17 184 0.0 3.2 0.00 0.00 0.00 59 1028.5
20260831133112 17 184 1.6 3.2 0.00 0.00 0.00 59 1028.5
20260831132606 17 182 0.0 3.2 0.00 0.00 0.00 58 1028.6
20260831132100 17 145 0.0 6.4 0.00 0.00 0.00 58 1028.6
20260831131619 18 145 4.8 6.4 0.00 0.00 0.00 57 1028.5
20260831131112 18 153 1.6 8.0 0.00 0.00 0.00 56 1028.3
20260831130606 18 155 3.2 6.4 0.00 0.00 0.00 56 1028.1
20260831130120 18 164 0.0 8.0 0.00 0.00 0.00 54 1028.0
20260831125635 18 28 3.2 8.0 0.00 0.00 0.00 54 1027.8
20260831125107 18 23 3.2 8.0 0.00 0.00 0.00 55 1027.6
20260831124601 17 360 3.2 8.0 0.00 0.00 0.00 55 1027.4
20260831124116 17 44 1.6 4.8 0.00 0.00 0.00 55 1027.4
20260831123613 17 42 1.6 4.8 0.00 0.00 0.00 55 1027.4
20260831123108 17 61 3.2 9.7 0.00 0.00 0.00 56 1027.4
20260831122621 17 51 3.2 12.9 0.00 0.00 0.00 57 1027.5
20260831122114 17 54 4.8 14.5 0.00 0.00 0.00 59 1027.6
20260831121609 16 46 3.2 9.7 0.00 0.00 0.00 62 1027.6
20260831121103 16 164 1.6 4.8 0.00 0.00 0.00 62 1027.7
20260831120616 16 170 0.0 3.2 0.00 0.00 0.00 63 1027.9
20260831120132 16 148 0.0 4.8 0.00 0.00 0.00 63 1027.9
20260831115604 16 148 1.6 4.8 0.00 0.00 0.00 63 1028.1
20260831115102 16 294 0.0 0.0 0.00 0.00 0.00 63 1028.3
20260831114615 16 294 0.0 0.0 0.00 0.00 0.00 65 1028.2
20260831114109 16 294 0.0 0.0 0.00 0.00 0.00 64 1028.3
20260831113603 16 294 0.0 0.0 0.00 0.00 0.00 64 1028.2
20260831113117 16 294 0.0 0.0 0.00 0.00 0.00 62 1028.1
20260831112611 16 294 0.0 1.6 0.00 0.00 0.00 63 1028.1
20260831112126 16 294 0.0 3.2 0.00 0.00 0.00 63 1027.9
20260831111618 16 294 1.6 3.2 0.00 0.00 0.00 62 1027.6
20260831111116 16 256 1.6 4.8 0.00 0.00 0.00 62 1027.3
20260831110611 16 257 1.6 3.2 0.00 0.00 0.00 61 1027.1
20260831110105 16 45 0.0 0.0 0.00 0.00 0.00 62 1027.0
20260831105619 16 45 0.0 0.0 0.00 0.00 0.00 61 1027.0
20260831105113 16 45 0.0 0.0 0.00 0.00 0.00 61 1026.9
20260831104607 16 45 0.0 0.0 0.00 0.00 0.00 61 1026.9
20260831104100 17 45 0.0 0.0 0.00 0.00 0.00 61 1026.9
20260831103615 17 45 0.0 0.0 0.00 0.00 0.00 60 1027.1
20260831103112 17 45 0.0 0.0 0.00 0.00 0.00 60 1027.1
20260831102607 17 45 0.0 0.0 0.00 0.00 0.00 60 1027.1
20260831102121 17 45 0.0 0.0 0.00 0.00 0.00 58 1027.1
20260831101615 17 45 0.0 0.0 0.00 0.00 0.00 58 1027.1
20260831101129 17 45 0.0 0.0 0.00 0.00 0.00 59 1027.1
20260831100601 17 45 0.0 0.0 0.00 0.00 0.00 57 1027.1
20260831100136 17 45 0.0 0.0 0.00 0.00 0.00 56 1027.1
20260831095608 17 45 0.0 0.0 0.00 0.00 0.00 56 1027.0
20260831095102 17 45 0.0 0.0 0.00 0.00 0.00 57 1027.0
20260831094636 17 45 0.0 1.6 0.00 0.00 0.00 57 1027.0
20260831094113 18 45 0.0 1.6 0.00 0.00 0.00 57 1026.9
20260831093607 18 45 0.0 6.4 0.00 0.00 0.00 56 1026.9
20260831093101 18 44 3.2 6.4 0.00 0.03 0.00 53 1026.9
20260831092615 18 53 0.0 4.8 0.00 0.03 0.00 55 1026.8
20260831092109 17 177 1.6 4.8 0.00 0.03 0.00 54 1026.7
20260831091602 17 57 0.0 4.8 0.00 0.03 0.00 59 1026.8
20260831091116 17 57 1.6 6.4 0.00 0.03 0.00 58 1026.9
20260831090614 17 76 1.6 6.4 0.00 0.03 0.00 56 1026.9
20260831090108 17 237 1.6 3.2 0.00 0.03 0.00 59 1027.0
20260831085601 17 234 0.0 3.2 0.00 0.03 0.00 60 1027.0
20260831085115 17 234 0.0 0.0 0.00 0.03 0.00 57 1026.9
20260831084610 17 234 0.0 0.0 0.00 0.03 0.00 58 1026.9
20260831084125 18 234 0.0 0.0 0.00 0.03 0.00 59 1026.9
20260831083618 18 234 0.0 0.0 0.00 0.03 0.00 59 1026.8
20260831083111 18 234 0.0 0.0 0.00 0.03 0.00 55 1026.8
20260831082609 18 234 0.0 0.0 0.00 0.03 0.00 55 1026.8
20260831082103 18 234 0.0 0.0 0.00 0.03 0.00 54 1026.8
20260831081616 18 234 0.0 0.0 0.00 0.03 0.00 53 1026.9
20260831081110 18 234 0.0 3.2 0.00 0.03 0.00 52 1026.9
20260831080604 18 234 0.0 3.2 0.00 0.03 0.00 53 1026.9
20260831080118 18 234 1.6 3.2 0.00 0.03 0.00 53 1026.9
20260831075633 18 269 0.0 0.0 0.00 0.03 0.00 54 1026.8
20260831075105 18 269 0.0 0.0 0.00 0.03 0.00 56 1026.8
20260831074603 18 269 0.0 0.0 0.00 0.03 0.00 58 1026.9
20260831074117 18 269 0.0 0.0 0.00 0.03 0.00 55 1026.8
20260831073610 18 269 0.0 0.0 0.00 0.03 0.00 55 1026.8
20260831073126 18 269 0.0 0.0 0.00 0.03 0.00 57 1026.7
20260831072619 18 269 0.0 0.0 0.00 0.03 0.00 55 1026.7
20260831072113 18 269 0.0 0.0 0.00 0.03 0.00 53 1026.5
20260831071606 18 269 0.0 0.0 0.00 0.03 0.00 54 1026.5
20260831071101 18 270 0.0 0.0 0.00 0.03 0.00 52 1026.6
20260831070614 18 270 0.0 0.0 0.00 0.03 0.00 51 1026.6
20260831070113 18 269 0.0 0.0 0.00 0.03 0.00 53 1026.4
20260831065607 19 269 0.0 0.0 0.00 0.03 0.00 53 1026.4
20260831065101 19 269 0.0 0.0 0.00 0.03 0.00 50 1026.4
20260831064615 19 269 0.0 0.0 0.00 0.03 0.00 48 1026.4
20260831064109 19 269 0.0 0.0 0.00 0.03 0.00 50 1026.3
20260831063603 19 269 0.0 0.0 0.00 0.03 0.00 49 1026.4
20260831063117 19 236 0.0 0.0 0.00 0.03 0.03 48 1026.4
20260831062615 20 237 0.0 4.8 0.00 0.03 0.03 49 1026.2
20260831062109 20 237 1.6 4.8 0.00 0.03 0.03 46 1026.2
20260831061603 20 351 0.0 1.6 0.00 0.03 0.03 47 1026.3
20260831061116 20 244 0.0 1.6 0.00 0.03 0.03 44 1026.2
20260831060610 21 159 0.0 1.6 0.00 0.03 0.03 46 1026.2
20260831060104 21 159 0.0 4.8 0.00 0.03 0.03 43 1026.2
20260831055618 21 159 1.6 11.3 0.00 0.03 0.03 44 1026.2
20260831055112 21 148 4.8 11.3 0.00 0.03 0.03 39 1026.1
20260831054610 21 161 0.0 4.8 0.00 0.03 0.03 40 1026.0
20260831054104 21 161 1.6 8.0 0.00 0.03 0.03 40 1025.8
20260831053618 21 122 1.6 8.0 0.00 0.03 0.03 41 1025.8
20260831053111 21 253 3.2 8.0 0.00 0.05 0.03 42 1026.0
20260831052605 20 61 1.6 6.4 0.00 0.05 0.03 47 1026.1
20260831052120 20 182 1.6 3.2 0.00 0.05 0.03 44 1026.1
20260831051635 20 175 0.0 4.8 0.00 0.05 0.03 50 1026.2
20260831051108 20 109 1.6 8.0 0.00 0.05 0.03 51 1026.2
20260831050602 20 246 0.0 6.4 0.00 0.05 0.03 49 1026.2
20260831050100 20 246 3.2 6.4 0.00 0.05 0.03 49 1026.2
20260831045614 20 324 0.0 0.0 0.00 0.05 0.03 51 1026.1
20260831045128 20 324 0.0 4.8 0.00 0.05 0.03 51 1026.1
20260831044601 20 324 3.2 6.4 0.00 0.05 0.03 52 1026.1
20260831044113 20 242 3.2 6.4 0.00 0.05 0.03 50 1026.1
20260831043608 20 207 0.0 3.2 0.00 0.05 0.03 52 1026.0
20260831043102 20 207 0.0 3.2 0.00 0.05 0.03 49 1026.2
20260831042616 20 207 0.0 1.6 0.00 0.05 0.03 52 1026.2
20260831042131 20 207 0.0 3.2 0.00 0.05 0.03 52 1026.2
20260831041608 20 207 1.6 3.2 0.00 0.05 0.03 52 1026.2
20260831041102 21 207 1.6 1.6 0.00 0.05 0.03 50 1026.0
20260831040614 21 207 0.0 0.0 0.00 0.05 0.03 52 1026.1
20260831040107 21 207 0.0 0.0 0.00 0.05 0.03 50 1026.2
20260831035622 21 207 0.0 0.0 0.00 0.05 0.03 49 1026.2
20260831035116 21 207 0.0 0.0 0.00 0.05 0.03 50 1026.4
20260831034609 21 207 0.0 0.0 0.00 0.05 0.03 49 1026.3
20260831034103 22 207 0.0 0.0 0.00 0.05 0.03 47 1026.2
20260831033601 22 207 0.0 0.0 0.00 0.05 0.03 47 1026.2
20260831033115 22 207 0.0 0.0 0.00 0.13 0.03 46 1026.2
20260831032609 22 207 0.0 0.0 0.00 0.13 0.03 43 1026.0
20260831032103 22 207 0.0 1.6 0.00 0.13 0.03 46 1026.0
20260831031617 22 207 0.0 1.6 0.00 0.13 0.03 42 1026.0
20260831031110 22 207 1.6 3.2 0.00 0.13 0.03 41 1025.9
20260831030625 22 207 1.6 3.2 0.00 0.13 0.03 41 1025.8
20260831030117 22 207 1.6 3.2 0.00 0.13 0.03 42 1025.8
20260831025611 22 207 1.6 4.8 0.00 0.13 0.03 42 1025.7
20260831025106 22 207 1.6 4.8 0.00 0.13 0.03 42 1025.7
20260831024603 21 150 1.6 3.2 0.00 0.13 0.03 45 1025.7
20260831024118 21 150 0.0 0.0 0.00 0.13 0.03 47 1025.6
20260831023612 21 150 0.0 0.0 0.00 0.13 0.03 45 1025.5
20260831023106 21 150 0.0 0.0 0.00 0.18 0.03 48 1025.4
20260831022620 21 150 0.0 0.0 0.00 0.18 0.03 46 1025.4